Location: Ladrillo (historical)
(32.8195°N, 117.2231°W)
Time: 23:20:13
(UTC+00:00)

Altair - Pass Details

Date: 04 March 2021
Orbit: 1501 x 1683 km, 47.2° (Epoch: 16 April)

Event Time Altitude Azimuth Distance (km) Brightness Sun altitude
Rises 02:40:23 0° 250° (WSW) 4,625 11.5 -11.8°
Reaches altitude 10° 02:43:29 10° 254° (WSW) 3,648 10.8 -12.4°
Maximum altitude 02:52:27 56° 332° (NNW) 1,761 8.0 -14.3°
Drops below altitude 10° 03:01:41 10° 49° (NE) 3,744 9.1 -16.3°
Enters shadow 03:02:20 - 50° (NE) 3,945 9.2 -16.4°
